Regional Weather Roundup
Issued by NWS Charleston, WV

Home | Current Version | Previous Version | Text Only | Print | Product List | Glossary Off
Versions: 1 2 3 4 5 6 7 8 9 10 11 12 13 14 15 16 17 18 19 20 21 22 23 24 25 26 27 28 29 30 31 32 33 34 35 36 37 38 39 40 41 42 43 44 45 46 47 48 49 50

000
ASUS41 KRLX 020410
RWRRLX
West Virginia Regional Weather Roundup
National Weather Service Charleston WV
1200 AM EDT SUN AUG 02 2015

Note: "fair" indicates few or no clouds below 12,000 feet with no
significant weather and/or obstructions to visibility.

WVZ003-020500-
Northern Panhandle of West Virginia

CITY           SKY/WX    TMP DP  RH WIND       PRES   REMARKS
WHEELING       CLEAR     68  56  65 S3        29.97S
$$

WVZ009-020500-
Northwest West Virginia

CITY           SKY/WX    TMP DP  RH WIND       PRES   REMARKS
PARKERSBURG    CLEAR     65  59  81 CALM      30.00S
$$

WVZ006-020500-
Western West Virginia

CITY           SKY/WX    TMP DP  RH WIND       PRES   REMARKS
HUNTINGTON     CLEAR     66  61  84 CALM      29.99S
$$

WVZ015-020500-
West Central West Virginia

CITY           SKY/WX    TMP DP  RH WIND       PRES   REMARKS
CHARLESTON     PTCLDY    65  61  87 CALM      30.00R
$$

WVZ022-031-020500-
North Central West Virginia

CITY           SKY/WX    TMP DP  RH WIND       PRES   REMARKS
CLARKSBURG     CLOUDY    63  59  87 CALM      29.99S
MORGANTOWN     MOCLDY    68  55  63 CALM      29.99S
$$

WVZ025-035-042-045-020500-
Southern West Virginia

CITY           SKY/WX    TMP DP  RH WIND       PRES   REMARKS
BECKLEY        CLEAR     62  56  80 SE3       30.07S
LOGAN            N/A     68  61  77 CALM      30.00R
BLUEFIELD      CLEAR     67  56  67 W3        30.08F
LEWISBURG      CLEAR     60  56  88 CALM      30.05S
$$

WVZ047-020500-
Northern Mountains of West Virginia

CITY           SKY/WX    TMP DP  RH WIND       PRES   REMARKS
ELKINS         CLEAR     57  54  89 CALM      30.04F
$$

WVZ052-020500-
Eastern Panhandle of West Virginia

CITY           SKY/WX    TMP DP  RH WIND       PRES   REMARKS
MARTINSBURG    CLEAR     73  55  53 NW6       29.93S
PETERSBURG     CLEAR    N/A N/A N/A CALM      29.99R
$$


USA.gov is the U.S. government's official web portal to all federal, state and local government web resources and services.